Overview Statistics Trail Chart Weather Telemetry Raw packets
 

This is the latest recevied weather packets stored in our database for station/object PP5KJ-13. If no packets are shown the sender has not sent any weather packets the latest 10 day(s).

<< 2 3 4 5 6 7 8 >>
Time Temp. Humidity Pressure Rain* Wind** Luminosity Snow
1788629253 17.78° C 5% 1017 hPa 1.02 mm 3.58 m/s, 140° - -
1788628653 18.33° C 5% 1017 hPa 0 mm 3.58 m/s, 140° - -
1788628053 18.33° C 5% 1017 hPa 0 mm 3.58 m/s, 140° - -
1788627453 18.89° C 5% 1017 hPa 0.25 mm 3.58 m/s, 140° - -
1788626853 18.33° C 5% 1017 hPa 0 mm 3.58 m/s, 140° - -
1788626253 18.33° C 5% 1017 hPa 0 mm 3.58 m/s, 140° - -
1788625653 18.89° C 5% 1017 hPa 0 mm 3.58 m/s, 140° - -
1788625052 19.44° C 5% 1017 hPa 0 mm 3.58 m/s, 140° - -
1788624452 20° C 5% 1017 hPa 0 mm 3.58 m/s, 140° - -
1788623852 20° C 5% 1017 hPa 0 mm 4.47 m/s, 130° - -
1788623252 20.56° C 5% 1018 hPa 0.25 mm 4.47 m/s, 130° - -
1788622652 20.56° C 5% 1018 hPa 0.25 mm 4.47 m/s, 130° - -
1788622138 20° C 5% 1018 hPa 0.25 mm 4.47 m/s, 130° - -
1788622138 20° C 5% 1018 hPa 0 mm 4.47 m/s, 130° - -
1788620852 20° C 5% 1018 hPa 0.25 mm 4.47 m/s, 130° - -
1788620252 19.44° C 5% 1018 hPa 0.51 mm 2.68 m/s, 180° - -
1788619652 18.33° C 5% 1018 hPa 1.02 mm 2.68 m/s, 180° - -
1788619052 18.89° C 5% 1018 hPa 1.27 mm 2.68 m/s, 180° - -
1788618452 18.33° C 5% 1019 hPa 0.51 mm 2.68 m/s, 180° - -
1788617852 18.89° C 5% 1019 hPa 0.25 mm 2.68 m/s, 180° - -
1788617252 18.89° C 5% 1019 hPa 0.76 mm 2.68 m/s, 180° - -
1788616652 19.44° C 5% 1019 hPa 1.02 mm 3.58 m/s, 180° - -
1788616052 19.44° C 5% 1019 hPa 1.02 mm 3.58 m/s, 180° - -
1788615452 18.89° C 5% 1019 hPa 0.76 mm 3.58 m/s, 180° - -
1788614852 19.44° C 5% 1019 hPa 1.02 mm 3.58 m/s, 180° - -

* Rain latest hour (hover to see other rain measurements)
** Current wind speed in m/s (hover to see current wind gust speed)